sat.trackr.live / text

‹ back to catalog

STARLINK-5650

NORAD 55475 · 2023-015AC

PAYLOAD ACTIVE UNKNOWN

§ Identity

Operator
Country
US
Launch date
2023-02-02
Launch site
AFETR
Launch vehicle
Mass (kg)
RCS (m²)

Purposes: comms

External: N2YO · Heavens-Above · Gunter

§ Orbital elements

Epoch: 2026-05-25T00:28:00.266592Z

Period
94.27 min
Inclination
43.0038°
Eccentricity
0.0001588
Mean motion
15.27575720 rev/d
Perigee alt
482.0 km
Apogee alt
484.2 km
Semi-major
6,861.2 km
B*
-1.5596e-5
RAAN
257.8187°
Arg perigee
275.6240°
Mean anomaly
84.4430°
Rev number
18,239

§ Raw data

STARLINK-56501 55475U 23015AC  26145.01944753 -.00000691  00000+0 -15596-4 0  99952 55475  43.0038 257.8187 0001588 275.6240  84.4430 15.27575720182399

JSON: /api/v1/satellites/55475 · /tle

For live sub-satellite position, see the globe view (requires WebGL).

§ Visibility from observer

Set your observer location to see the next 7 days of passes ≥ 10°. The values pass through the URL so the page stays shareable.

No JS? Fill the form by hand. The geolocation button needs JavaScript.